Inverness, FL

6:43 AM EDT on March 23, 2017 (GMT -0400)
Inverness

Weather History for KINF - September, 2013

Change the Weather History Date:

Friday, September 13, 2013

  Actual Average (KBKV) Record (KBKV)
Temperature  
Mean Temperature 78 °F -  
Max Temperature 89 °F 87 °F 93 °F (1997)
Min Temperature 68 °F 68 °F 64 °F (2005)
Cooling Degree Days 14    
Growing Degree Days 28 (Base 50)    
Moisture  
Dew Point 71 °F    
Average Humidity 84    
Maximum Humidity 100    
Minimum Humidity 49    
Precipitation  
Precipitation 0.89 in - - ()
Sea Level Pressure  
Sea Level Pressure 29.88 in    
Wind  
Wind Speed 1 mph (North)    
Max Wind Speed 16 mph    
Max Gust Speed 26 mph    
Visibility 8 miles    
Events Fog , Rain , Thunderstorm    
Averages and records for this station are not official NWS values.
T = Trace of Precipitation, MM = Missing Value Source: NWS Daily Summary

Daily Weather History Graph

Daily Weather History Graph

Search for Another Location

Airport or City:

Trip Planner

Search our weather history database for the weather conditions in past years. The results will help you decide how hot, cold, wet, or windy it might be!

Date:

Astronomy

Sep. 13, 2013 Rise Set
Actual Time 7:13 AM EDT 7:36 PM EDT
Civil Twilight 6:49 AM EDT 8:00 PM EDT
Nautical Twilight 6:21 AM EDT 8:27 PM EDT
Astronomical Twilight 5:53 AM EDT 8:55 PM EDT
Moon 3:05 PM EDT (9/13) 1:02 AM EDT (9/13)
Length of Visible Light 13h 10m
Length of Day
12h 23m
First Quarter, 61% of the Moon is Illuminated
Sep 13
First Quarter
Sep 19
Full
Sep 26
Last Quarter
Oct 4
New
Oct 11
First Quarter

Hourly Weather History & Observations

Time (EDT) Temp. Heat Index Dew Point Humidity Pressure Visibility Wind Dir Wind Speed Gust Speed Precip Events Conditions
12:15 AM 69.8 °F - 69.8 °F 100% 29.94 in 10.0 mi Calm Calm - N/A   Clear
12:35 AM 69.8 °F - 69.8 °F 100% 29.93 in 10.0 mi Calm Calm - N/A   Clear
12:55 AM 69.8 °F - 69.8 °F 100% 29.93 in 10.0 mi Calm Calm - N/A   Clear
1:15 AM 69.8 °F - 69.8 °F 100% 29.93 in 10.0 mi Calm Calm - N/A   Clear
1:35 AM 69.8 °F - 69.8 °F 100% 29.93 in 10.0 mi Calm Calm - N/A   Clear
1:55 AM 69.8 °F - 69.8 °F 100% 29.93 in 10.0 mi Calm Calm - N/A   Clear
2:15 AM 69.8 °F - 69.8 °F 100% 29.93 in 10.0 mi Calm Calm - N/A   Clear
2:35 AM 69.8 °F - 69.8 °F 100% 29.93 in 10.0 mi Calm Calm - N/A   Clear
2:55 AM 69.8 °F - 69.8 °F 100% 29.92 in 10.0 mi Calm Calm - N/A   Clear
3:15 AM 69.8 °F - 69.8 °F 100% 29.91 in 10.0 mi Calm Calm - N/A   Scattered Clouds
3:35 AM 69.8 °F - 68.0 °F 94% 29.91 in 10.0 mi Calm Calm - N/A   Clear
3:55 AM 69.8 °F - 68.0 °F 94% 29.91 in 10.0 mi Calm Calm - N/A   Clear
4:15 AM 69.8 °F - 68.0 °F 94% 29.90 in 7.0 mi Calm Calm - N/A   Scattered Clouds
4:35 AM 68.0 °F - 68.0 °F 100% 29.90 in 2.5 mi Calm Calm - N/A   Mostly Cloudy
4:55 AM 69.8 °F - 69.8 °F 100% 29.90 in 0.5 mi Calm Calm - N/A Fog Fog
5:15 AM 69.8 °F - 69.8 °F 100% 29.90 in 0.2 mi Calm Calm - N/A Fog Fog
5:35 AM 69.8 °F - 69.8 °F 100% 29.90 in 0.2 mi Calm Calm - N/A Fog Fog
5:55 AM 69.8 °F - 69.8 °F 100% 29.90 in 0.2 mi Calm Calm - N/A Fog Fog
6:15 AM 69.8 °F - 69.8 °F 100% 29.90 in 0.2 mi Calm Calm - N/A Fog Fog
6:35 AM 69.8 °F - 68.0 °F 94% 29.90 in 5.0 mi Calm Calm - N/A   Overcast
6:55 AM 68.0 °F - 68.0 °F 100% 29.91 in 4.0 mi Calm Calm - N/A   Overcast
7:15 AM 69.8 °F - 69.8 °F 100% 29.91 in 0.2 mi Calm Calm - N/A Fog Fog
7:35 AM 69.8 °F - 69.8 °F 100% 29.91 in 0.2 mi Calm Calm - N/A Fog Fog
7:55 AM 69.8 °F - 69.8 °F 100% 29.91 in 0.2 mi Calm Calm - N/A Fog Fog
8:15 AM 69.8 °F - 69.8 °F 100% 29.92 in 3.0 mi Calm Calm - N/A   Overcast
8:35 AM 71.6 °F - 69.8 °F 94% 29.92 in 7.0 mi Calm Calm - N/A   Mostly Cloudy
8:55 AM 71.6 °F - 71.6 °F 100% 29.92 in 10.0 mi SSW 3.5 mph - N/A   Scattered Clouds
9:15 AM 73.4 °F - 73.4 °F 100% 29.92 in 10.0 mi Calm Calm - N/A   Clear
9:35 AM 75.2 °F - 73.4 °F 94% 29.92 in 10.0 mi Calm Calm - N/A   Clear
9:55 AM 80.6 °F 84.6 °F 71.6 °F 74% 29.92 in 10.0 mi Calm Calm - N/A   Clear
10:15 AM 80.6 °F 84.6 °F 71.6 °F 74% 29.92 in 10.0 mi Calm Calm - N/A   Clear
10:35 AM 82.4 °F 87.2 °F 71.6 °F 70% 29.92 in 10.0 mi North 3.5 mph - N/A   Clear
10:55 AM 84.2 °F 89.6 °F 71.6 °F 66% 29.92 in 10.0 mi NNW 3.5 mph - N/A   Clear
11:15 AM 86.0 °F 91.8 °F 71.6 °F 62% 29.92 in 10.0 mi Calm Calm - N/A   Clear
11:35 AM 86.0 °F 90.4 °F 69.8 °F 58% 29.92 in 10.0 mi NNW 3.5 mph - N/A   Clear
11:55 AM 86.0 °F 90.4 °F 69.8 °F 58% 29.91 in 10.0 mi Calm Calm - N/A   Scattered Clouds
12:15 PM 86.0 °F 90.4 °F 69.8 °F 58% 29.91 in 7.0 mi Calm Calm - N/A   Scattered Clouds
12:35 PM 87.8 °F 92.6 °F 69.8 °F 55% 29.90 in 7.0 mi Calm Calm - N/A   Scattered Clouds
12:55 PM 89.6 °F 94.7 °F 69.8 °F 52% 29.89 in 7.0 mi ENE 4.6 mph - N/A   Scattered Clouds
1:15 PM 87.8 °F 91.4 °F 68.0 °F 52% 29.88 in 7.0 mi Calm Calm - N/A   Mostly Cloudy
1:35 PM 89.6 °F 93.4 °F 68.0 °F 49% 29.88 in 10.0 mi Calm Calm - N/A   Mostly Cloudy
1:55 PM 89.6 °F 93.4 °F 68.0 °F 49% 29.86 in 7.0 mi North 6.9 mph - N/A   Mostly Cloudy
2:15 PM 89.6 °F 94.7 °F 69.8 °F 52% 29.86 in 7.0 mi North 3.5 mph - N/A   Mostly Cloudy
2:35 PM 89.6 °F 94.7 °F 69.8 °F 52% 29.85 in 7.0 mi Calm Calm - N/A   Scattered Clouds
2:55 PM 87.8 °F 92.6 °F 69.8 °F 55% 29.84 in 7.0 mi NW 4.6 mph - N/A   Mostly Cloudy
3:15 PM 87.8 °F 92.6 °F 69.8 °F 55% 29.83 in 4.0 mi Calm Calm - N/A   Haze
3:35 PM 87.8 °F 93.8 °F 71.6 °F 58% 29.83 in 7.0 mi SSW 4.6 mph - N/A Thunderstorm Overcast
3:55 PM 77.0 °F - 68.0 °F 74% 29.83 in 1.5 mi SSE 16.1 mph 23.0 mph 0.30 in Rain , Thunderstorm Thunderstorms and Rain
4:15 PM 75.2 °F - 71.6 °F 89% 29.84 in 1.5 mi East 9.2 mph 20.7 mph 0.20 in Rain , Thunderstorm Heavy Thunderstorms and Rain
4:35 PM 77.0 °F - 69.8 °F 78% 29.83 in 1.5 mi East 6.9 mph 26.5 mph 0.50 in Rain , Thunderstorm Light Thunderstorms and Rain
4:55 PM 80.6 °F 84.6 °F 71.6 °F 74% 29.83 in 10.0 mi Calm Calm - 0.59 in   Mostly Cloudy
5:15 PM 80.6 °F 84.6 °F 71.6 °F 74% 29.83 in 10.0 mi SW 3.5 mph - N/A   Mostly Cloudy
5:35 PM 82.4 °F 87.2 °F 71.6 °F 70% 29.83 in 10.0 mi SE 3.5 mph - N/A   Mostly Cloudy
5:55 PM 86.0 °F 91.8 °F 71.6 °F 62% 29.83 in 10.0 mi SW 3.5 mph - N/A Thunderstorm Thunderstorm
6:15 PM 86.0 °F 91.8 °F 71.6 °F 62% 29.83 in 10.0 mi North 4.6 mph - N/A Thunderstorm Clear
6:35 PM 80.6 °F 84.6 °F 71.6 °F 74% 29.83 in 10.0 mi Calm Calm - N/A   Clear
6:55 PM 80.6 °F 85.4 °F 73.4 °F 79% 29.83 in 10.0 mi Calm Calm - N/A   Clear
7:15 PM 78.8 °F - 73.4 °F 83% 29.83 in 10.0 mi Calm Calm - N/A   Clear
7:35 PM 77.0 °F - 73.4 °F 89% 29.84 in 10.0 mi Calm Calm - N/A   Clear
7:55 PM 77.0 °F - 73.4 °F 89% 29.84 in 10.0 mi Calm Calm - N/A   Clear
8:15 PM 77.0 °F - 73.4 °F 89% 29.84 in 10.0 mi Calm Calm - N/A   Clear
8:35 PM 75.2 °F - 73.4 °F 94% 29.85 in 10.0 mi Calm Calm - N/A   Clear
8:55 PM 73.4 °F - 71.6 °F 94% 29.86 in 10.0 mi Calm Calm - N/A   Clear
9:15 PM 73.4 °F - 73.4 °F 100% 29.86 in 10.0 mi Calm Calm - N/A   Clear
9:35 PM 73.4 °F - 71.6 °F 94% 29.87 in 10.0 mi Calm Calm - N/A   Clear
9:55 PM 73.4 °F - 73.4 °F 100% 29.87 in 10.0 mi Calm Calm - N/A   Clear
10:15 PM 73.4 °F - 73.4 °F 100% 29.87 in 10.0 mi Calm Calm - N/A   Clear
10:35 PM 73.4 °F - 71.6 °F 94% 29.87 in 7.0 mi Calm Calm - N/A   Clear
10:55 PM 73.4 °F - 71.6 °F 94% 29.87 in 7.0 mi Calm Calm - N/A   Clear
11:15 PM 73.4 °F - 71.6 °F 94% 29.87 in 7.0 mi Calm Calm - N/A   Clear
11:35 PM 73.4 °F - 71.6 °F 94% 29.87 in 7.0 mi Calm Calm - N/A   Clear
11:55 PM 71.6 °F - 71.6 °F 100% 29.87 in 7.0 mi Calm Calm - N/A   Clear